Tracking 18624 objects as of 27-April-2017
HD Live streaming from Space Station
objects crossing your sky now

COSMOS 2251 DEB

Track COSMOS 2251 DEB now!
10-day predictions


NORAD ID: 33899
Int'l Code: 1993-036DC
Perigee: 691.4 km
Apogee: 801.9 km
Inclination: 74.1 °
Period: 99.6 minutes
Semi major axis: 7117 km
RCS: 0.032 m2 (small)
Launch date: June 16, 1993
Source: Commonwealth of Independent States (former USSR) (CIS)
Launch site: PLESETSK MISSILE AND SPACE COMPLEX (PKMTR)

Note: This is SATELLITE DEBRIS
Your satellite tracking list
Your tracking list is empty





NASA's NSSDC Master Catalog

Two Line Element Set (TLE):
1 33899U 93036DC  17115.75844469 +.00000581 +00000-0 +16552-3 0  9991
2 33899 074.0584 232.2214 0077647 017.7623 102.0795 14.45762294431630
Source of the keplerian elements: AFSPC